Regional Weather Roundup
Issued by NWS Albany, NY

Home | Current Version | Previous Version | Graphics & Text | Print | Product List | Glossary On
Versions: 1 2 3 4 5 6 7 8 9 10 11 12 13 14 15 16 17 18 19 20 21 22 23 24 25 26 27
000
ASUS41 KALY 101210
RWRALY

NEW YORK STATE HOURLY WEATHER ROUNDUP
NATIONAL WEATHER SERVICE ALBANY NY
700 AM EST SAT DEC 10 2016

NOTE: "FAIR" INDICATES FEW OR NO CLOUDS BELOW 12,000 FEET WITH NO
SIGNIFICANT WEATHER AND/OR NO OBSTRUCTIONS TO VISIBILITY.

NYZ032-033-038>043-046>054-057>066-NYZ062>081-082-084-101300-
EAST


CITY           SKY/WX    TMP DP  RH WIND       PRES   REMARKS
ALBANY         CLOUDY    20  12  71 NW6       30.35R WCI  12
GLENS FALLS      N/A     16   6  65 VRB6      30.33R WCI   7
POUGHKEEPSIE   PTCLDY    16  13  88 CALM      30.35R
NEWBURGH       MOCLDY    21  18  86 W8        30.34R WCI  12
MONTGOMERY     CLOUDY    21  16  81 CALM      30.33R
WHITE PLAINS   PTCLDY    26  16  65 W9        30.33R WCI  17
ISLIP          PTCLDY    24  17  74 SW7       30.35R WCI  16
NEW YORK CITY  PTCLDY    31  17  56 W12       30.38R WCI  22
CENTRAL PARK   CLEAR     29  15  56 W8        30.39R WCI  21
$$

NYZ005>009-017-018-044>046-055-056-101300-
CENTRAL


CITY           SKY/WX    TMP DP  RH WIND       PRES   REMARKS
FULTON         CLOUDY    19  16  88 SE3       30.34R
SYRACUSE       FLURRIES  16  15  96 CALM      30.34S
ROME           CLOUDY    15  13  91 CALM      30.36R
ELMIRA         NOT AVBL
BINGHAMTON     NOT AVBL
MONTICELLO     CLEAR     18  16  93 W6        30.28R WCI   9
$$

NYZ026>034-041>043-087-101300-
NORTH


CITY           SKY/WX    TMP DP  RH WIND       PRES   REMARKS
WATERTOWN      CLEAR     10   9  95 CALM      30.35R
FORT DRUM      NOT AVBL
OGDENSBURG     FAIR      15  13  92 CALM      30.34S
MASSENA        CLOUDY    19  12  74 SW5       30.35R WCI  12
SARANAC LAKE   CLOUDY    12   6  77 CALM      30.20R
PLATTSBURGH    CLOUDY    19   8  62 NW5       30.32R WCI  12
$$

NYZ001>004-010>016-019>021-085-101300-
WEST


CITY           SKY/WX    TMP DP  RH WIND       PRES   REMARKS
NIAGARA FALLS  LGT SNOW  27  22  81 CALM      30.33R
BUFFALO        LGT SNOW  25  20  81 W6        30.33R WCI  18
DUNKIRK        FLURRIES  28  18  66 NW14G21   30.34R WCI  17
JAMESTOWN      CLOUDY    21  18  86 SW12      30.28R WCI   9
WELLSVILLE     LGT SNOW  23  18  81 W8        30.24S WCI  14
ROCHESTER      CLOUDY    21  19  92 SW3       30.34R
PENN YAN       CLOUDY    21  15  78 CALM      30.32R
$$

             KEY
       WCI = WIND CHILL INDEX
       VSB = VISIBILITY
       HX  = HEAT INDEX
$$




USA.gov is the U.S. government's official web portal to all federal, state and local government web resources and services.